NORTHERN QUEENS  -  Air Quality Alert Air Quality Alert        SOUTHERN QUEENS  -  Air Quality Alert Air Quality Alert      

Active alerts

Northern Queens
  Details for Northern Queens Air Quality Alert
Southern Queens
  Details for Southern Queens Air Quality Alert


WXM80 ListenWXM80 Stop

You find our weather info also at:

UK Metoffice

WeatherCloud

Weather Underground

Northeastern Weather Network

AWEKAS

Citizen Weather Observer Program (CWOP)

HAMweather, WeatherForYou, PWS Weather


Weather Underground History page Text

Daily Summary for April 3, 2017 Units:  English    Metric   Both
« Previous Day
Next Day »
Daily Weekly Monthly Yearly Custom
  High: Low: Average:
Temperature: 61.9 °F 38.1 °F 49.9 °F
Dew Point: 44.3 °F 32.6 °F 37.1 °F
Humidity: 82 % 39 % 63 %
Wind Speed: 12.5 mph 0.0 mph 2 mph
Wind Gust: 18.4 mph - -
Wind:- - SSE
Pressure: 30.11 in 29.87 in -
Precipitation: 0.00 in    
Historical Graphs
 
 
Tabular Data for April 3, 2017
Time Temperature Dew Point Pressure Wind Wind Speed Wind Gust Humidity Rainfall Rate (Hourly)
00:01 48.0 °F 35.6 °F 30.06 in Calm   1.2 mph 62 % 0.00 in
00:06 47.6 °F 35.2 °F 30.06 in West 0.6 mph 3.5 mph 62 % 0.00 in
00:11 47.3 °F 34.9 °F 30.06 in Calm   1.2 mph 62 % 0.00 in
00:16 47.0 °F 35.0 °F 30.06 in Calm     63 % 0.00 in
00:21 46.8 °F 35.6 °F 30.05 in Calm   1.2 mph 65 % 0.00 in
00:26 46.4 °F 35.7 °F 30.05 in Calm   1.2 mph 66 % 0.00 in
00:31 45.9 °F 35.6 °F 30.05 in Calm     67 % 0.00 in
00:36 45.6 °F 35.3 °F 30.05 in West 0.7 mph 1.2 mph 67 % 0.00 in
00:41 45.3 °F 35.0 °F 30.05 in Calm     67 % 0.00 in
00:46 44.9 °F 35.0 °F 30.05 in Calm     68 % 0.00 in
00:51 44.6 °F 35.1 °F 30.05 in Calm   1.2 mph 69 % 0.00 in
00:56 44.2 °F 34.7 °F 30.05 in West 1.0 mph 2.3 mph 69 % 0.00 in
01:01 43.9 °F 34.7 °F 30.05 in West 0.7 mph 3.5 mph 70 % 0.00 in
01:06 43.7 °F 34.6 °F 30.05 in West 0.1 mph 1.2 mph 70 % 0.00 in
01:08 43.6 °F 34.5 °F 30.05 in West 0.1 mph 1.2 mph 70 % 0.00 in
01:13 43.5 °F 34.4 °F 30.05 in Calm   1.2 mph 70 % 0.00 in
01:18 43.4 °F 34.3 °F 30.06 in Calm     70 % 0.00 in
01:23 43.2 °F 34.1 °F 30.06 in Calm     70 % 0.00 in
01:28 43.1 °F 34.3 °F 30.07 in West 0.9 mph 2.3 mph 71 % 0.00 in
01:33 42.9 °F 34.1 °F 30.06 in Calm     71 % 0.00 in
01:38 42.7 °F 34.3 °F 30.06 in Calm     72 % 0.00 in
01:43 42.5 °F 34.1 °F 30.06 in Calm     72 % 0.00 in
01:48 42.2 °F 34.2 °F 30.06 in Calm     73 % 0.00 in
01:53 42.0 °F 34.3 °F 30.06 in Calm     74 % 0.00 in
01:58 41.7 °F 34.0 °F 30.06 in West 0.3 mph 1.2 mph 74 % 0.00 in
02:03 41.5 °F 34.2 °F 30.05 in Calm     75 % 0.00 in
02:08 41.3 °F 34.0 °F 30.05 in Calm     75 % 0.00 in
02:13 41.1 °F 33.8 °F 30.05 in Calm     75 % 0.00 in
02:18 40.9 °F 33.6 °F 30.04 in Calm   1.2 mph 75 % 0.00 in
02:23 40.7 °F 33.7 °F 30.04 in West 0.9 mph 1.2 mph 76 % 0.00 in
02:28 40.5 °F 33.9 °F 30.04 in West 0.8 mph 2.3 mph 77 % 0.00 in
02:33 40.4 °F 33.8 °F 30.05 in Calm     77 % 0.00 in
02:38 40.4 °F 33.8 °F 30.06 in West 1.0 mph 2.3 mph 77 % 0.00 in
02:44 40.4 °F 33.8 °F 30.06 in West 0.3 mph 1.2 mph 77 % 0.00 in
02:49 40.4 °F 33.8 °F 30.06 in West 1.0 mph 2.3 mph 77 % 0.00 in
02:54 40.5 °F 33.5 °F 30.06 in West 0.3 mph 2.0 mph 76 % 0.00 in
02:59 40.5 °F 33.5 °F 30.06 in West 0.3 mph 1.2 mph 76 % 0.00 in
03:04 40.6 °F 33.6 °F 30.06 in West 2.1 mph 3.5 mph 76 % 0.00 in
03:09 40.7 °F 34.0 °F 30.06 in West 1.0 mph 2.3 mph 77 % 0.00 in
03:14 40.7 °F 34.0 °F 30.05 in West 0.1 mph 1.2 mph 77 % 0.00 in
03:19 40.7 °F 34.0 °F 30.06 in Calm     77 % 0.00 in
03:24 40.6 °F 34.0 °F 30.06 in West 0.5 mph 1.2 mph 77 % 0.00 in
03:29 40.6 °F 34.0 °F 30.06 in West 1.1 mph 2.3 mph 77 % 0.00 in
03:34 40.5 °F 33.9 °F 30.06 in West 0.3 mph 1.2 mph 77 % 0.00 in
03:39 40.4 °F 33.8 °F 30.06 in Calm     77 % 0.00 in
03:44 40.4 °F 33.8 °F 30.05 in Calm     77 % 0.00 in
03:49 40.4 °F 33.8 °F 30.05 in West 1.0 mph 2.3 mph 77 % 0.00 in
03:54 40.5 °F 33.5 °F 30.05 in West 0.4 mph 1.2 mph 76 % 0.00 in
03:59 40.5 °F 33.9 °F 30.05 in West 0.9 mph 1.2 mph 77 % 0.00 in
04:04 40.6 °F 34.0 °F 30.05 in West 0.9 mph 1.2 mph 77 % 0.00 in
04:09 40.7 °F 33.7 °F 30.04 in West 0.6 mph 1.2 mph 76 % 0.00 in
04:14 40.7 °F 33.7 °F 30.04 in West 1.1 mph 2.3 mph 76 % 0.00 in
04:19 40.7 °F 33.7 °F 30.04 in Calm     76 % 0.00 in
04:24 40.7 °F 33.7 °F 30.04 in Calm     76 % 0.00 in
04:29 40.7 °F 33.7 °F 30.04 in Calm     76 % 0.00 in
04:34 40.6 °F 33.6 °F 30.05 in West 0.8 mph 1.2 mph 76 % 0.00 in
04:39 40.4 °F 33.4 °F 30.05 in West 1.2 mph 3.5 mph 76 % 0.00 in
04:44 40.3 °F 33.3 °F 30.05 in Calm     76 % 0.00 in
04:49 40.3 °F 33.3 °F 30.05 in Calm   2.3 mph 76 % 0.00 in
04:54 40.2 °F 33.2 °F 30.04 in Calm     76 % 0.00 in
05:00 40.1 °F 33.1 °F 30.05 in Calm     76 % 0.00 in
05:05 40.0 °F 33.4 °F 30.05 in Calm     77 % 0.00 in
05:10 39.8 °F 33.2 °F 30.05 in Calm     77 % 0.00 in
05:15 39.7 °F 33.1 °F 30.05 in Calm     77 % 0.00 in
05:20 39.6 °F 33.0 °F 30.05 in Calm     77 % 0.00 in
05:25 39.5 °F 32.9 °F 30.06 in Calm     77 % 0.00 in
05:30 39.4 °F 33.1 °F 30.06 in Calm     78 % 0.00 in
05:35 39.2 °F 32.9 °F 30.06 in Calm     78 % 0.00 in
05:40 39.1 °F 32.8 °F 30.06 in Calm     78 % 0.00 in
05:45 38.9 °F 32.6 °F 30.06 in Calm     78 % 0.00 in
05:50 38.8 °F 32.8 °F 30.06 in Calm     79 % 0.00 in
05:55 38.7 °F 32.7 °F 30.06 in Calm     79 % 0.00 in
06:00 38.6 °F 32.6 °F 30.06 in Calm     79 % 0.00 in
06:05 38.5 °F 32.6 °F 30.06 in Calm     79 % 0.00 in
06:10 38.4 °F 32.8 °F 30.06 in Calm     80 % 0.00 in
06:15 38.3 °F 32.7 °F 30.06 in Calm     80 % 0.00 in
06:20 38.3 °F 32.7 °F 30.07 in Calm     80 % 0.00 in
06:25 38.2 °F 32.6 °F 30.07 in Calm     80 % 0.00 in
06:30 38.2 °F 32.6 °F 30.07 in Calm     80 % 0.00 in
06:35 38.2 °F 32.6 °F 30.07 in Calm     80 % 0.00 in
06:40 38.1 °F 32.8 °F 30.06 in Calm     81 % 0.00 in
06:45 38.2 °F 32.6 °F 30.07 in Calm     80 % 0.00 in
06:50 38.2 °F 32.6 °F 30.07 in Calm     80 % 0.00 in
06:55 38.3 °F 33.0 °F 30.07 in Calm     81 % 0.00 in
07:00 38.4 °F 33.1 °F 30.07 in Calm     81 % 0.00 in
07:05 38.5 °F 33.2 °F 30.08 in Calm     81 % 0.00 in
07:10 38.6 °F 33.3 °F 30.08 in Calm     81 % 0.00 in
07:15 38.7 °F 33.1 °F 30.08 in Calm     80 % 0.00 in
07:20 38.8 °F 33.2 °F 30.09 in Calm     80 % 0.00 in
07:25 38.9 °F 33.6 °F 30.09 in West 0.6 mph 2.3 mph 81 % 0.00 in
07:30 39.1 °F 33.8 °F 30.09 in WSW 0.5 mph 2.3 mph 81 % 0.00 in
07:35 39.3 °F 34.0 °F 30.10 in WSW 0.4 mph 2.3 mph 81 % 0.00 in
07:40 39.8 °F 34.4 °F 30.10 in Calm     81 % 0.00 in
07:45 40.1 °F 34.7 °F 30.10 in WSW 0.1 mph 1.2 mph 81 % 0.00 in
07:51 40.4 °F 35.0 °F 30.10 in WSW 0.2 mph 1.2 mph 81 % 0.00 in
07:56 40.8 °F 35.7 °F 30.10 in WSW 1.1 mph 3.5 mph 82 % 0.00 in
08:01 41.4 °F 36.0 °F 30.10 in WSW 0.2 mph 1.2 mph 81 % 0.00 in
08:06 42.0 °F 36.3 °F 30.10 in WSW 0.1 mph 1.2 mph 80 % 0.00 in
08:11 42.7 °F 36.6 °F 30.11 in WSW 1.7 mph 2.3 mph 79 % 0.00 in
08:16 43.7 °F 36.6 °F 30.11 in WSW 2.3 mph 3.5 mph 76 % 0.00 in
08:21 44.6 °F 36.8 °F 30.11 in WSW 1.8 mph 3.5 mph 74 % 0.00 in
08:26 45.3 °F 36.8 °F 30.10 in WSW 0.2 mph 2.3 mph 72 % 0.00 in
08:31 45.8 °F 37.6 °F 30.10 in Calm   1.2 mph 73 % 0.00 in
08:36 46.1 °F 37.6 °F 30.10 in WSW 0.2 mph 2.0 mph 72 % 0.00 in
08:41 46.7 °F 37.8 °F 30.10 in WSW 0.4 mph 2.3 mph 71 % 0.00 in
08:46 47.3 °F 37.3 °F 30.10 in WSW 0.4 mph 1.2 mph 68 % 0.00 in
08:51 47.9 °F 38.2 °F 30.10 in WSW 0.3 mph 1.2 mph 69 % 0.00 in
08:54 48.3 °F 37.5 °F 30.10 in WSW 1.3 mph 3.0 mph 66 % 0.00 in
08:59 49.1 °F 36.2 °F 30.10 in WSW 0.4 mph 1.2 mph 61 % 0.00 in
09:04 50.1 °F 38.8 °F 30.10 in Calm     65 % 0.00 in
09:09 51.3 °F 39.9 °F 30.10 in WSW 0.3 mph 1.2 mph 65 % 0.00 in
09:14 52.3 °F 40.1 °F 30.10 in West 0.6 mph 2.3 mph 63 % 0.00 in
09:19 53.0 °F 41.5 °F 30.09 in West 0.5 mph 2.3 mph 65 % 0.00 in
09:24 53.5 °F 41.2 °F 30.09 in West 0.3 mph 1.2 mph 63 % 0.00 in
09:29 53.7 °F 41.8 °F 30.09 in West 0.3 mph 2.3 mph 64 % 0.00 in
09:34 54.2 °F 41.5 °F 30.09 in West 0.3 mph 1.2 mph 62 % 0.00 in
09:39 54.5 °F 40.5 °F 30.09 in NNW 1.3 mph 2.3 mph 59 % 0.00 in
09:44 54.3 °F 40.7 °F 30.09 in ENE 2.1 mph 3.5 mph 60 % 0.00 in
09:49 53.5 °F 40.8 °F 30.09 in ENE 2.4 mph 3.5 mph 62 % 0.00 in
09:54 52.8 °F 41.0 °F 30.09 in ENE 2.2 mph 3.5 mph 64 % 0.00 in
10:00 51.7 °F 40.3 °F 30.09 in ENE 2.1 mph 3.5 mph 65 % 0.00 in
10:05 51.2 °F 41.0 °F 30.09 in ENE 0.5 mph 1.2 mph 68 % 0.00 in
10:10 50.5 °F 39.6 °F 30.09 in ENE 1.2 mph 2.3 mph 66 % 0.00 in
10:15 50.1 °F 40.3 °F 30.09 in ENE 0.3 mph 1.2 mph 69 % 0.00 in
10:19 50.0 °F 39.8 °F 30.09 in ENE 0.7 mph 2.3 mph 68 % 0.00 in
10:24 49.8 °F 39.7 °F 30.09 in ENE 0.6 mph 1.2 mph 68 % 0.00 in
10:29 49.7 °F 39.6 °F 30.09 in ENE 0.3 mph 1.2 mph 68 % 0.00 in
10:34 50.0 °F 40.6 °F 30.09 in Calm     70 % 0.00 in
10:39 50.0 °F 40.6 °F 30.08 in ENE 0.9 mph 2.3 mph 70 % 0.00 in
10:44 50.2 °F 40.0 °F 30.09 in ENE 0.2 mph 1.2 mph 68 % 0.00 in
10:49 50.4 °F 39.5 °F 30.09 in ENE 1.3 mph 3.5 mph 66 % 0.00 in
10:54 50.8 °F 40.2 °F 30.09 in Calm   1.2 mph 67 % 0.00 in
10:59 51.2 °F 38.6 °F 30.09 in ENE 0.6 mph 1.2 mph 62 % 0.00 in
11:04 52.1 °F 41.5 °F 30.08 in ENE 0.3 mph 2.0 mph 67 % 0.00 in
11:09 53.9 °F 42.4 °F 30.08 in NE 0.5 mph 1.2 mph 65 % 0.00 in
11:14 54.5 °F 40.5 °F 30.08 in ENE 3.0 mph 4.6 mph 59 % 0.00 in
11:19 54.4 °F 39.9 °F 30.08 in NE 1.9 mph 3.5 mph 58 % 0.00 in
11:24 54.4 °F 38.6 °F 30.08 in NE 0.4 mph 1.2 mph 55 % 0.00 in
11:29 54.6 °F 39.2 °F 30.08 in ENE 1.6 mph 2.3 mph 56 % 0.00 in
11:34 54.6 °F 41.0 °F 30.08 in NE 0.4 mph 3.5 mph 60 % 0.00 in
11:39 54.4 °F 40.8 °F 30.08 in NE 0.8 mph 3.5 mph 60 % 0.00 in
11:44 54.4 °F 39.9 °F 30.08 in Calm   2.3 mph 58 % 0.00 in
11:49 55.1 °F 41.0 °F 30.08 in NNE 1.1 mph 2.3 mph 59 % 0.00 in
11:54 56.1 °F 40.6 °F 30.07 in NE 1.6 mph 3.5 mph 56 % 0.00 in
12:00 56.7 °F 40.2 °F 30.07 in ENE 2.4 mph 3.5 mph 54 % 0.00 in
12:05 56.5 °F 40.0 °F 30.07 in NNE 3.4 mph 5.8 mph 54 % 0.00 in
12:10 56.6 °F 39.7 °F 30.07 in NNE 3.5 mph 4.6 mph 53 % 0.00 in
12:15 57.0 °F 40.5 °F 30.06 in North 2.2 mph 3.5 mph 54 % 0.00 in
12:20 57.2 °F 40.2 °F 30.05 in NE 2.0 mph 3.5 mph 53 % 0.00 in
12:25 57.4 °F 40.9 °F 30.05 in NNE 2.5 mph 3.5 mph 54 % 0.00 in
12:30 57.1 °F 40.1 °F 30.05 in NE 2.9 mph 8.1 mph 53 % 0.00 in
12:35 56.9 °F 41.4 °F 30.05 in NE 2.0 mph 2.3 mph 56 % 0.00 in
12:40 56.4 °F 40.0 °F 30.05 in NE 0.7 mph 3.0 mph 54 % 0.00 in
12:45 56.5 °F 41.4 °F 30.05 in NE 1.9 mph 3.5 mph 57 % 0.00 in
12:50 57.0 °F 41.4 °F 30.04 in NNE 2.1 mph 3.5 mph 56 % 0.00 in
12:55 57.9 °F 40.4 °F 30.04 in ENE 3.4 mph 5.8 mph 52 % 0.00 in
13:00 58.2 °F 43.0 °F 30.04 in NNE 3.1 mph 4.6 mph 57 % 0.00 in
13:05 59.4 °F 42.7 °F 30.04 in NNE 3.3 mph 4.6 mph 54 % 0.00 in
13:10 60.2 °F 42.5 °F 30.04 in NE 2.0 mph 5.8 mph 52 % 0.00 in
13:15 60.0 °F 42.3 °F 30.04 in North 2.8 mph 3.5 mph 52 % 0.00 in
13:21 59.7 °F 42.0 °F 30.03 in NE 4.1 mph 8.1 mph 52 % 0.00 in
13:26 58.8 °F 42.7 °F 30.03 in North 5.6 mph 6.9 mph 55 % 0.00 in
13:31 58.6 °F 44.3 °F 30.03 in NNE 0.3 mph 3.5 mph 59 % 0.00 in
13:36 57.9 °F 42.3 °F 30.03 in ENE 3.6 mph 5.0 mph 56 % 0.00 in
13:41 57.2 °F 43.4 °F 30.03 in NNE 3.3 mph 4.6 mph 60 % 0.00 in
13:46 57.8 °F 44.0 °F 30.03 in NE 2.4 mph 4.6 mph 60 % 0.00 in
13:51 58.2 °F 42.1 °F 30.03 in ENE 4.6 mph 6.9 mph 55 % 0.00 in
13:56 58.2 °F 42.1 °F 30.03 in ENE 1.1 mph 3.5 mph 55 % 0.00 in
14:01 58.3 °F 42.7 °F 30.03 in NE 1.6 mph 3.5 mph 56 % 0.00 in
14:06 58.2 °F 43.0 °F 30.02 in East 1.0 mph 4.6 mph 57 % 0.00 in
14:11 58.7 °F 40.6 °F 30.02 in South 1.9 mph 11.5 mph 51 % 0.00 in
14:16 59.8 °F 38.4 °F 30.02 in SSE 8.8 mph 17.3 mph 45 % 0.00 in
14:21 60.4 °F 37.2 °F 30.02 in SSE 12.5 mph 18.4 mph 42 % 0.00 in
14:27 60.7 °F 38.6 °F 30.02 in South 4.4 mph 6.9 mph 44 % 0.00 in
14:32 61.5 °F 38.8 °F 30.02 in SSE 3.3 mph 9.2 mph 43 % 0.00 in
14:37 61.9 °F 39.1 °F 30.02 in South 7.0 mph 11.5 mph 43 % 0.00 in
14:42 61.6 °F 37.7 °F 30.02 in SSW 4.9 mph 10.4 mph 41 % 0.00 in
14:47 61.7 °F 37.7 °F 30.01 in South 2.9 mph 5.8 mph 41 % 0.00 in
14:52 61.8 °F 37.8 °F 30.01 in SSE 7.4 mph 13.8 mph 41 % 0.00 in
14:57 61.4 °F 36.8 °F 30.01 in SSE 6.6 mph 12.0 mph 40 % 0.00 in
15:02 61.5 °F 38.8 °F 30.00 in SSE 6.7 mph 12.0 mph 43 % 0.00 in
15:07 61.4 °F 37.5 °F 30.00 in SE 5.0 mph 7.0 mph 41 % 0.00 in
15:13 61.3 °F 36.8 °F 30.00 in SSE 4.6 mph 12.0 mph 40 % 0.00 in
15:18 61.0 °F 38.3 °F 30.00 in South 3.4 mph 10.0 mph 43 % 0.00 in
15:23 61.2 °F 37.3 °F 30.00 in SSE 6.7 mph 11.5 mph 41 % 0.00 in
15:28 61.0 °F 37.7 °F 29.99 in SSW 4.7 mph 9.0 mph 42 % 0.00 in
15:33 61.1 °F 37.8 °F 30.00 in SSW 5.6 mph 7.0 mph 42 % 0.00 in
15:38 61.3 °F 37.4 °F 29.99 in SSE 3.8 mph 9.2 mph 41 % 0.00 in
15:43 61.1 °F 37.2 °F 29.99 in SSW 2.5 mph 9.2 mph 41 % 0.00 in
15:48 60.8 °F 36.9 °F 29.99 in WSW 2.2 mph 11.5 mph 41 % 0.00 in
15:53 61.0 °F 37.7 °F 29.99 in SSW 4.8 mph 11.5 mph 42 % 0.00 in
15:54 61.1 °F 37.2 °F 29.99 in SW 6.3 mph 11.5 mph 41 % 0.00 in
15:59 61.0 °F 37.7 °F 29.99 in SSW 5.4 mph 11.5 mph 42 % 0.00 in
16:04 61.0 °F 37.7 °F 29.99 in SSE 3.7 mph 6.0 mph 42 % 0.00 in
16:09 61.0 °F 38.3 °F 29.98 in South 2.4 mph 6.9 mph 43 % 0.00 in
16:14 61.2 °F 37.9 °F 29.98 in WSW 5.6 mph 11.5 mph 42 % 0.00 in
16:19 60.9 °F 35.8 °F 29.98 in South 5.8 mph 8.0 mph 39 % 0.00 in
16:24 60.5 °F 36.7 °F 29.98 in South 6.4 mph 12.0 mph 41 % 0.00 in
16:29 60.4 °F 37.8 °F 29.97 in South 5.6 mph 7.0 mph 43 % 0.00 in
16:34 60.4 °F 37.2 °F 29.97 in SSW 2.4 mph 6.9 mph 42 % 0.00 in
16:39 60.1 °F 36.3 °F 29.97 in SSE 6.2 mph 11.5 mph 41 % 0.00 in
16:44 59.6 °F 37.1 °F 29.97 in SE 6.1 mph 14.0 mph 43 % 0.00 in
16:49 59.1 °F 35.4 °F 29.97 in South 6.8 mph 11.5 mph 41 % 0.00 in
16:54 58.7 °F 36.2 °F 29.97 in South 6.1 mph 13.8 mph 43 % 0.00 in
16:59 58.7 °F 36.8 °F 29.96 in SE 7.1 mph 12.7 mph 44 % 0.00 in
17:04 58.6 °F 36.7 °F 29.96 in SSW 6.4 mph 12.7 mph 44 % 0.00 in
17:09 58.6 °F 36.7 °F 29.96 in SSW 4.3 mph 10.4 mph 44 % 0.00 in
17:14 58.7 °F 36.2 °F 29.96 in SSW 4.3 mph 10.4 mph 43 % 0.00 in
17:19 58.4 °F 36.6 °F 29.96 in South 6.2 mph 9.2 mph 44 % 0.00 in
17:24 58.0 °F 37.3 °F 29.96 in SSE 6.4 mph 10.4 mph 46 % 0.00 in
17:26 57.9 °F 37.2 °F 29.96 in South 5.2 mph 9.2 mph 46 % 0.00 in
17:31 57.3 °F 36.7 °F 29.96 in South 7.9 mph 11.5 mph 46 % 0.00 in
17:36 56.9 °F 36.9 °F 29.96 in South 2.7 mph 4.6 mph 47 % 0.00 in
17:41 56.6 °F 36.6 °F 29.96 in ESE 5.7 mph 8.1 mph 47 % 0.00 in
17:46 56.2 °F 36.8 °F 29.95 in South 6.2 mph 10.4 mph 48 % 0.00 in
17:51 56.0 °F 37.6 °F 29.96 in SSE 2.2 mph 5.8 mph 50 % 0.00 in
17:56 55.9 °F 38.0 °F 29.96 in South 3.6 mph 8.1 mph 51 % 0.00 in
18:01 55.7 °F 37.8 °F 29.96 in SSE 2.3 mph 3.5 mph 51 % 0.00 in
18:06 55.4 °F 38.1 °F 29.96 in South 5.4 mph 10.4 mph 52 % 0.00 in
18:11 55.0 °F 38.2 °F 29.97 in SSW 7.1 mph 11.5 mph 53 % 0.00 in
18:16 54.7 °F 38.8 °F 29.96 in SSE 2.7 mph 5.0 mph 55 % 0.00 in
18:21 54.5 °F 38.7 °F 29.96 in SSE 5.1 mph 9.2 mph 55 % 0.00 in
18:26 54.2 °F 38.8 °F 29.96 in South 3.8 mph 6.9 mph 56 % 0.00 in
18:31 53.8 °F 38.9 °F 29.96 in SSW 3.0 mph 18.4 mph 57 % 0.00 in
18:36 53.5 °F 39.1 °F 29.96 in South 5.0 mph 10.4 mph 58 % 0.00 in
18:41 53.3 °F 38.9 °F 29.96 in South 2.7 mph 6.9 mph 58 % 0.00 in
18:46 53.0 °F 39.0 °F 29.96 in SSE 2.8 mph 6.9 mph 59 % 0.00 in
18:51 52.8 °F 39.3 °F 29.96 in South 5.1 mph 11.5 mph 60 % 0.00 in
18:56 52.6 °F 39.5 °F 29.96 in South 3.2 mph 9.2 mph 61 % 0.00 in
19:01 52.4 °F 39.3 °F 29.96 in South 1.9 mph 8.1 mph 61 % 0.00 in
19:06 52.2 °F 39.1 °F 29.96 in South 2.2 mph 6.9 mph 61 % 0.00 in
19:11 52.0 °F 39.4 °F 29.96 in South 3.3 mph 6.9 mph 62 % 0.00 in
19:16 51.9 °F 39.3 °F 29.95 in SSE 3.3 mph 11.5 mph 62 % 0.00 in
19:21 51.8 °F 39.2 °F 29.95 in SSE 5.8 mph 10.4 mph 62 % 0.00 in
19:26 51.7 °F 39.5 °F 29.94 in SSE 3.5 mph 7.0 mph 63 % 0.00 in
19:31 51.7 °F 39.5 °F 29.94 in SE 3.0 mph 4.6 mph 63 % 0.00 in
19:36 51.5 °F 39.7 °F 29.94 in South 2.1 mph 4.6 mph 64 % 0.00 in
19:41 51.5 °F 39.7 °F 29.94 in SSW 4.3 mph 8.1 mph 64 % 0.00 in
19:46 51.4 °F 39.6 °F 29.94 in South 5.9 mph 8.1 mph 64 % 0.00 in
19:51 51.3 °F 39.9 °F 29.94 in SSE 3.4 mph 5.8 mph 65 % 0.00 in
19:57 51.2 °F 39.8 °F 29.94 in SSE 3.7 mph 10.4 mph 65 % 0.00 in
20:02 51.2 °F 39.4 °F 29.94 in SSW 1.8 mph 8.1 mph 64 % 0.00 in
20:07 51.2 °F 39.0 °F 29.94 in South 1.8 mph 3.5 mph 63 % 0.00 in
20:12 51.2 °F 39.0 °F 29.94 in SSE 2.9 mph 6.9 mph 63 % 0.00 in
20:17 51.2 °F 38.6 °F 29.93 in SSE 2.8 mph 5.0 mph 62 % 0.00 in
20:22 51.2 °F 38.6 °F 29.93 in SSW 4.1 mph 8.1 mph 62 % 0.00 in
20:27 51.2 °F 38.6 °F 29.93 in South 4.2 mph 5.0 mph 62 % 0.00 in
20:32 51.2 °F 38.6 °F 29.92 in SSW 5.1 mph 9.0 mph 62 % 0.00 in
20:37 51.2 °F 38.6 °F 29.93 in South 3.0 mph 4.6 mph 62 % 0.00 in
20:42 51.1 °F 38.5 °F 29.93 in South 3.1 mph 6.9 mph 62 % 0.00 in
20:47 51.2 °F 39.0 °F 29.93 in SSW 1.9 mph 4.6 mph 63 % 0.00 in
20:52 51.1 °F 38.9 °F 29.93 in South 5.0 mph 12.0 mph 63 % 0.00 in
20:57 51.1 °F 38.9 °F 29.93 in South 3.2 mph 6.9 mph 63 % 0.00 in
21:02 51.1 °F 38.5 °F 29.94 in South 3.0 mph 8.0 mph 62 % 0.00 in
21:03 51.1 °F 38.5 °F 29.94 in South 2.3 mph 4.6 mph 62 % 0.00 in
21:08 51.1 °F 38.5 °F 29.94 in South 1.5 mph 4.0 mph 62 % 0.00 in
21:13 51.2 °F 38.2 °F 29.94 in SSE 2.2 mph 5.8 mph 61 % 0.00 in
21:18 51.2 °F 38.2 °F 29.93 in SSE 4.2 mph 6.0 mph 61 % 0.00 in
21:23 51.2 °F 38.2 °F 29.93 in South 0.7 mph 4.0 mph 61 % 0.00 in
21:28 51.2 °F 37.8 °F 29.93 in SSE 2.6 mph 5.8 mph 60 % 0.00 in
21:33 51.2 °F 37.8 °F 29.93 in SE 2.3 mph 3.5 mph 60 % 0.00 in
21:38 51.2 °F 37.4 °F 29.93 in SSE 2.3 mph 6.9 mph 59 % 0.00 in
21:43 51.2 °F 37.4 °F 29.92 in SSE 1.9 mph 4.6 mph 59 % 0.00 in
21:48 51.2 °F 37.8 °F 29.94 in South 3.5 mph 5.0 mph 60 % 0.00 in
21:53 51.2 °F 37.8 °F 29.93 in SSE 1.1 mph 8.1 mph 60 % 0.00 in
21:58 51.2 °F 37.8 °F 29.92 in SSE 3.0 mph 5.0 mph 60 % 0.00 in
22:03 51.2 °F 37.8 °F 29.93 in SSE 1.1 mph 3.5 mph 60 % 0.00 in
22:08 51.2 °F 38.2 °F 29.92 in SSE 1.5 mph 3.5 mph 61 % 0.00 in
22:13 51.1 °F 37.7 °F 29.93 in SSE 1.3 mph 3.5 mph 60 % 0.00 in
22:18 51.1 °F 37.7 °F 29.92 in South 0.3 mph 3.5 mph 60 % 0.00 in
22:23 51.1 °F 37.7 °F 29.92 in South 1.2 mph 3.0 mph 60 % 0.00 in
22:28 51.1 °F 37.3 °F 29.92 in SSE 2.1 mph 3.0 mph 59 % 0.00 in
22:33 51.1 °F 36.8 °F 29.92 in SE 1.9 mph 4.6 mph 58 % 0.00 in
22:38 51.1 °F 36.8 °F 29.93 in SSE 0.9 mph 4.6 mph 58 % 0.00 in
22:43 51.1 °F 36.4 °F 29.92 in SSE 0.1 mph   57 % 0.00 in
22:48 51.2 °F 36.5 °F 29.92 in SE 1.2 mph 4.6 mph 57 % 0.00 in
22:53 51.2 °F 36.0 °F 29.92 in SSE 1.6 mph 3.5 mph 56 % 0.00 in
22:58 51.2 °F 36.5 °F 29.92 in SSE 1.5 mph 3.0 mph 57 % 0.00 in
23:03 51.2 °F 36.0 °F 29.91 in SE 3.0 mph 3.5 mph 56 % 0.00 in
23:05 51.2 °F 36.0 °F 29.91 in Calm   3.5 mph 56 % 0.00 in
23:10 51.2 °F 36.5 °F 29.91 in SE 0.6 mph 4.0 mph 57 % 0.00 in
23:15 51.2 °F 36.0 °F 29.90 in SSE 1.0 mph 1.2 mph 56 % 0.00 in
23:20 51.2 °F 35.1 °F 29.90 in SE 2.0 mph 5.8 mph 54 % 0.00 in
23:25 51.3 °F 36.1 °F 29.89 in East 3.5 mph 4.6 mph 56 % 0.00 in
23:30 51.2 °F 36.0 °F 29.88 in SE 0.9 mph 2.3 mph 56 % 0.00 in
23:35 51.2 °F 35.6 °F 29.88 in SE 1.2 mph 3.5 mph 55 % 0.00 in
23:36 51.2 °F 35.6 °F 29.88 in SE 0.7 mph 3.5 mph 55 % 0.00 in
23:41 51.2 °F 35.1 °F 29.88 in SSE 1.1 mph 6.0 mph 54 % 0.00 in
23:46 51.3 °F 34.7 °F 29.88 in SE 1.7 mph 3.5 mph 53 % 0.00 in
23:51 51.3 °F 34.7 °F 29.88 in SE 1.9 mph 4.6 mph 53 % 0.00 in
23:56 51.3 °F 34.7 °F 29.87 in SE 1.3 mph 4.0 mph 53 % 0.00 in
Crab Meadow Weather
Compliments of Weather Underground - 3 mb

Script developed by  Jim McMurry - jmcmurry@mwt.net Adapted for the template by  Wim van der Kuil - Leuven-Template.eu

Clouds: Mostly sunny and mostly clear indicate the same amount of cloud coverage - about 25 percent. Mostly sunny is used during the daytime, and mostly clear is used at night when there is no sun.